CST,Max TemperatureF,Mean TemperatureF,Min TemperatureF,Max Dew PointF,MeanDew PointF,Min DewpointF,Max Humidity, Mean Humidity, Min Humidity, Max Sea Level PressureIn, Mean Sea Level PressureIn, Min Sea Level PressureIn, Max VisibilityMiles, Mean VisibilityMiles, Min VisibilityMiles, Max Wind SpeedMPH, Mean Wind SpeedMPH, Max Gust SpeedMPH,PrecipitationIn, CloudCover, Events, WindDirDegrees
2012-12-1,73,58,43,54,48,41,100,80,41,30.31,30.27,30.24,10,8,2,8,1,,0.00,1,,131
2012-12-2,75,60,44,57,51,42,93,79,45,30.35,30.27,30.22,10,9,7,8,1,,0.01,1,,213
2012-12-3,77,62,48,58,51,47,93,75,36,30.30,30.24,30.20,10,10,8,10,1,,0.00,2,,182
2012-12-4,77,62,46,61,51,44,93,79,39,30.30,30.24,30.19,10,10,6,9,1,,0.01,1,,184
2012-12-5,75,60,46,57,51,45,100,83,42,30.21,30.14,30.07,10,8,2,8,1,,0.00,1,,210
2012-12-6,75,62,48,56,52,46,93,74,44,30.09,30.03,29.99,10,10,8,8,2,,0.01,1,,63
2012-12-7,63,59,55,57,56,54,93,85,78,30.06,30.00,29.96,10,9,4,6,2,,0.00,7,,90
2012-12-8,73,64,55,64,59,54,100,88,65,30.04,30.00,29.95,10,6,0,7,1,,0.00,7,Fog,182
2012-12-9,75,68,62,63,61,56,100,84,50,30.10,30.03,29.96,10,7,0,10,3,,0.02,5,Fog-Rain,190
2012-12-10,77,67,55,67,62,52,97,86,60,29.95,29.86,29.75,10,8,1,18,6,28,0.06,6,Rain,224
2012-12-11,54,48,43,51,43,37,90,78,68,30.14,30.01,29.89,10,10,7,10,7,,0.08,7,Rain,353
2012-12-12,50,44,35,40,38,33,93,80,66,30.22,30.16,30.09,10,9,6,10,3,,0.03,6,,7
2012-12-13,62,48,33,43,39,31,96,81,46,30.32,30.28,30.22,10,8,4,7,2,,0.00,2,,47
2012-12-14,64,50,37,46,42,36,93,82,48,30.34,30.27,30.16,10,8,2,8,2,,0.00,4,,52
2012-12-15,68,58,48,53,50,45,93,80,56,30.19,30.11,30.04,10,10,9,6,1,,0.00,2,,205
2012-12-16,72,62,52,65,58,50,100,86,71,30.04,29.95,29.86,10,8,3,15,3,21,0.11,6,Rain,186
2012-12-17,64,60,57,62,58,55,100,91,82,29.89,29.82,29.74,10,8,0,20,4,30,0.96,7,Fog-Rain-Thunderstorm,200
2012-12-18,66,52,39,57,45,32,94,74,28,30.05,29.95,29.82,10,9,5,7,4,,0.02,1,,306
2012-12-19,72,53,34,46,40,32,100,78,30,30.11,30.06,30.01,10,8,0,8,1,,0.00,0,Fog,182
2012-12-20,72,59,45,68,54,29,94,78,44,30.10,29.89,29.74,10,8,0,18,7,33,0.61,5,Fog-Rain-Thunderstorm,227
2012-12-21,53,45,36,25,16,9,51,35,17,30.28,30.19,30.10,10,10,10,16,10,25,0.00,0,,310
2012-12-22,60,42,25,28,19,7,88,51,15,30.38,30.29,30.25,10,10,10,10,3,18,0.00,0,,338
2012-12-23,54,41,28,39,33,26,92,73,45,30.26,30.18,30.07,10,10,10,5,0,,0.00,1,,193
2012-12-24,71,58,46,63,57,40,97,88,70,30.05,29.92,29.86,10,6,0,17,5,24,1.01,7,Fog-Rain-Thunderstorm,213
2012-12-25,68,64,60,65,62,57,100,93,83,29.92,29.81,29.59,10,5,0,28,4,43,1.33,8,Fog-Rain-Thunderstorm,158
2012-12-26,61,50,37,57,39,29,88,70,58,30.09,29.81,29.61,10,10,1,20,13,30,0.53,7,Rain-Thunderstorm,281
2012-12-27,52,42,32,34,31,28,92,71,45,30.16,30.11,30.07,10,9,5,14,7,21,0.00,4,,340
2012-12-28,55,42,30,51,40,28,97,78,53,30.10,29.93,29.76,10,6,1,7,2,,0.63,4,Rain-Thunderstorm,137
2012-12-29,53,45,35,52,38,23,100,76,57,30.34,30.04,29.76,10,9,3,18,8,29,0.05,8,Rain,326
2012-12-30,54,41,28,30,25,23,89,65,30,30.47,30.40,30.33,10,10,7,10,5,,0.00,0,,4
2012-12-31,61,44,28,50,41,27,92,73,50,30.38,30.27,30.14,10,10,6,5,1,,0.00,5,,204